GSAT0215 (GALILEO 19) (43055 NORAD) Tracking and Keplerian Element Data

This shows tracking and keplerian element data for the satellite.

Feedback or suggestion? Click here.




ElementValue
Catalog43055
NameGSAT0215 (GALILEO 19)
Epoch Orbit622
Epoch Day347.14627846
Epoch Year2018
RAAN296.9213
Inclination56.712
Eccentricity0.000299
Argument of Perigee266.8888
Mean Anonmoly93.0758
Mean Motion1.70473523
Decay Rate-3.9E-07
L11 43055U 17079A 18347.14627846 -.00000039 00000-0 00000+0 0 9994
L22 43055 56.7120 296.9213 0002990 266.8888 93.0758 1.70473523 6222

Live tracking and technical data element details for GSAT0215 (GALILEO 19) (NORAD 43055). GSAT0215 (GALILEO 19) can be tracked NOW for your location showing map with azimuth and elevation plus other details from your city location.

Track the satellite on the map from your city or location and see movement details for azimuth, elevation, latitude, longitude, range, height, and movement on the map or in text.







IsCatalogInMostPopularTable: catalog: 43055, numindb: 180
Update: records affected: 1



GetName: 43055 GSAT0215 (GALILEO 19)

Hit Count: updated at: Sun, 16 Dec 2018 09:56:59 GMT